Regional Weather Roundup
Issued by NWS

Home | Current Version | Previous Version | Graphics & Text | Print | Product List | Glossary On
Versions: 1 2 3 4 5 6 7 8 9 10 11 12 13 14 15 16 17 18 19 20 21 22 23 24 25 26 27 28 29 30 31 32 33 34 35 36 37 38 39 40 41 42 43 44 45 46 47 48 49 50
000
ASUS45 KCYS 311410
RWRWY

WYOMING REGIONAL WEATHER ROUNDUP
NATIONAL WEATHER SERVICE CHEYENNE WY
800 AM MDT THU JUL 31 2014

NOTE:  "FAIR" INDICATES FEW OR NO CLOUDS BELOW 12,000 FEET
WITH NO SIGNIFICANT WEATHER AND/OR OBSTRUCTIONS TO VISIBILITY.

WYZ001-311500-
YELLOWSTONE NATIONAL PARK

CITY           SKY/WX    TMP DP  RH WIND       PRES   REMARKS
LK YELLOWSTONE   N/A     49  43  80 CALM      30.48R
W YELLOWSTONE  NOT AVBL

$$
WYZ002>013-054>058-071-098>099-311500-
NORTHERN WYOMING

CITY           SKY/WX    TMP DP  RH WIND       PRES   REMARKS
JACKSON        SUNNY     48  43  81 CALM      30.40S
CODY           NOT AVBL
GREYBULL       SUNNY     63  42  46 CALM      30.20R
WORLAND        SUNNY     67  43  41 S5        30.20S
SHERIDAN       SUNNY     63  47  55 CALM      30.19R
BUFFALO        SUNNY     71  38  29 SE6       30.25S
GILLETTE         N/A     70  48  45 SW7       30.23R
HULETT         FAIR      64  48  55 MISG      30.24
NEWCASTLE      FAIR      64  45  48 CALM      30.24

$$
WYZ014>020-022>026-101>103-311500-
CENTRAL WYOMING

CITY           SKY/WX    TMP DP  RH WIND       PRES   REMARKS
BIG PINEY      SUNNY     47  42  83 E3        30.41S
PINEDALE       SUNNY     45  43  93 W6        30.42S
DUBOIS         FAIR      46  34  61 NW12      30.39F
LANDER         SUNNY     55  47  74 SE5       30.30S
RIVERTON       SUNNY     60  41  49 W10       30.31S
CASPER         SUNNY     58  46  64 W5        30.30S
DOUGLAS        SUNNY     58  49  72 NW6       30.29S

$$
WYZ021-027>030-104>119-311500-
SOUTHERN WYOMING

CITY           SKY/WX    TMP DP  RH WIND       PRES   REMARKS
EVANSTON       MOSUNNY   52  47  83 N8        30.39R
KEMMERER       SUNNY     54  45  71 N5        30.41R
FORT BRIDGER     N/A     55  51  86 E3        30.42R
ROCK SPRINGS   SUNNY     51  44  77 S5        30.38R
DIXON          FAIR      57  47  68 S3        30.36R
RAWLINS        SUNNY     54  50  86 CALM      30.37S
SARATOGA       FAIR      50  45  81 CALM      30.40R
LARAMIE        MOSUNNY   48  48 100 S5        30.39R
CHEYENNE       SUNNY     59  46  62 W9        30.33R
TORRINGTON     SUNNY     59  53  80 W5        30.23R
PINE BLUFFS    FAIR      59  52  77 W3        30.29S

$$



USA.gov is the U.S. government's official web portal to all federal, state and local government web resources and services.